Preview of NWS' New Version of Forecast
This preview is not operational and should not be used for support decisions.

Regional Weather Roundup (RWR)

Issued by National Weather Service (NWS)

                            
000
ASUS44 KMEG 211900
RWRTN 
TENNESSEE HOURLY STATE WEATHER ROUNDUP
NATIONAL WEATHER SERVICE MEMPHIS TN
200 PM CDT SUN JUL 21 2019

TNZ002-004-019-021-049-052-054-088>092-212000-
WEST TENNESSEE
  
CITY           SKY/WX    TMP DP  RH WIND       PRES   REMARKS
MEMPHIS INTL   PTSUNNY   89  75  63 SW6       29.97F HX  99           
NWS MEMPHIS      N/A     87 N/A N/A MISG        N/A                   
JACKSON        FAIR      86  78  77 VRB3      29.98F HX  98           
DYERSBURG      PTSUNNY   88  79  74 S5        29.97F HX 103           
COVINGTON      SUNNY     84  77  79 SE8       29.96F HX  94           
HUNTINGDON     PTSUNNY   88  79  74 SW7       29.98F HX 102           
LEXINGTON      PTSUNNY   86  75  70 VRB5G12   29.99F HX  95           
SELMER         MOSUNNY   82  77  83 SW6       29.99F HX  91           
SAVANNAH       PTSUNNY   88  75  66 SW6       29.99F HX  97           
$$

TNZ008-025-027-028-033-062-065-066-212000-
NORTH MIDDLE TENNESSEE
  
CITY           SKY/WX    TMP DP  RH WIND       PRES   REMARKS
NASHVILLE      LGT RAIN  80  75  84 SW5       30.02F FOG              
PORTLAND       PTSUNNY   82  77  83 S7        30.01F HX  91           
CLARKSVILLE    FAIR      88  77  69 SE5       29.97F HX 100           
LEBANON        CLOUDY    81  75  83 W6        30.00F                  
SMYRNA         CLOUDY    81  75  82 SW7       30.03F                  
MURFREESBORO   PTCLDY    82  75  78 SW7       30.00F                  
COOKEVILLE     MOSUNNY   75  73  94 CALM      30.03F                  
LIVINGSTON     PTCLDY    82  73  74 SW8       30.04S                  
GALLATIN       PTCLDY    81  77  89 VRB3      30.03F                  
CROSSVILLE     FAIR      78  71  79 VRB7      30.08F                  
$$

TNZ061-075-076-078-094-096-097-212000-
SOUTH MIDDLE TENNESSEE
  
CITY           SKY/WX    TMP DP  RH WIND       PRES   REMARKS
LEWISBURG      MOCLDY    84  75  74 VRB3      30.01F HX  92           
FAYETTEVILLE   MOSUNNY   84  73  70 SW6G12    30.03F HX  91           
TULLAHOMA      SUNNY     82  73  74 SW12      30.03F                  
WINCHESTER     PTSUNNY   84  73  70 VRB7      30.03F HX  91           
MCMINNVILLE    MOSUNNY   84  73  70 VRB5G13   30.03F HX  91           
COLUMBIA       MOSUNNY   86  77  74 S10       29.99F HX  97           
$$

TNZ017-018-042-046-047-212000-
NORTHEAST TENNESSEE
  
CITY           SKY/WX    TMP DP  RH WIND       PRES   REMARKS
TRI CITIES     FAIR      88  70  55 W6        30.04F HX  93           
$$

TNZ012-013-036-069-073-074-212000-
CENTRAL EAST TENNESSEE
  
CITY           SKY/WX    TMP DP  RH WIND       PRES   REMARKS
KNOXVILLE      CLOUDY    89  69  51 SW13      30.02F HX  93           
OAK RIDGE      FAIR      88  71  57 VRB5      30.03F HX  94           
GATLINBURG     MOSUNNY   88  72  58 W9        30.01F HX  94           
MORRISTOWN     MOSUNNY   86  72  62 W9G16     30.03F HX  92           
JACKSBORO      CLOUDY    75  72  88 E5        30.07F                  
$$

TNZ083-085-099-212000-
SOUTHEAST TENNESSEE
  
CITY           SKY/WX    TMP DP  RH WIND       PRES   REMARKS
CHATTANOOGA    PTSUNNY   89  70  53 S8        30.03F HX  94           
$$

SKY/WX REPORTED AS FAIR MEANS FEW OR NO CLOUDS BELOW
12 THOUSAND FEET.